Time,TemperatureF,DewpointF,PressureIn,WindDirection,WindDirectionDegrees,WindSpeedMPH,WindSpeedGustMPH,Humidity,HourlyPrecipIn,Conditions,Clouds,dailyrainin,SoftwareType,DateUTC
2013-02-04 00:03:00,28.1,25.3,30.26,North,351,0.0,0.0,89,0.00,RA,,0.00,WeatherDisplay:10.37,2013-02-04 06:03:00,
2013-02-04 00:08:00,27.9,25.1,30.26,North,351,0.0,0.0,89,0.00,RA,,0.00,WeatherDisplay:10.37,2013-02-04 06:08:00,
2013-02-04 00:13:00,27.9,25.1,30.26,North,351,0.0,0.0,89,0.00,CLR,,0.00,WeatherDisplay:10.37,2013-02-04 06:13:00,
2013-02-04 00:18:00,27.9,25.1,30.26,North,351,0.0,0.0,89,0.00,CLR,,0.00,WeatherDisplay:10.37,2013-02-04 06:18:00,
2013-02-04 00:23:00,27.9,25.1,30.25,North,351,0.0,0.0,89,0.00,CLR,,0.00,WeatherDisplay:10.37,2013-02-04 06:23:00,
2013-02-04 00:28:00,27.9,25.1,30.26,North,351,0.0,0.0,89,0.00,CLR,,0.00,WeatherDisplay:10.37,2013-02-04 06:28:00,
2013-02-04 00:33:00,27.9,25.1,30.26,North,351,0.0,0.0,89,0.00,CLR,,0.00,WeatherDisplay:10.37,2013-02-04 06:33:00,
2013-02-04 00:38:00,27.9,25.3,30.26,North,350,0.0,0.0,90,0.00,CLR,,0.00,WeatherDisplay:10.37,2013-02-04 06:38:00,
2013-02-04 00:43:00,27.9,25.3,30.26,North,351,0.0,0.0,90,0.00,CLR,,0.00,WeatherDisplay:10.37,2013-02-04 06:43:00,
2013-02-04 00:48:00,27.8,25.2,30.26,North,351,0.0,0.0,90,0.00,CLR,,0.00,WeatherDisplay:10.37,2013-02-04 06:48:00,
2013-02-04 00:53:00,27.6,25.1,30.26,North,351,0.0,0.0,90,0.00,CLR,,0.00,WeatherDisplay:10.37,2013-02-04 06:53:00,
2013-02-04 00:58:00,27.5,25.0,30.26,North,351,0.0,0.0,90,0.00,CLR,,0.00,WeatherDisplay:10.37,2013-02-04 06:58:00,
2013-02-04 01:03:00,27.5,25.0,30.26,North,351,0.0,0.0,90,0.00,CLR,,0.00,WeatherDisplay:10.37,2013-02-04 07:03:00,
2013-02-04 01:08:00,27.3,24.8,30.26,North,351,0.0,0.0,90,0.00,CLR,,0.00,WeatherDisplay:10.37,2013-02-04 07:08:00,
2013-02-04 01:13:00,27.3,24.8,30.25,North,351,0.0,0.0,90,0.00,CLR,,0.00,WeatherDisplay:10.37,2013-02-04 07:13:00,
2013-02-04 01:18:00,27.2,24.7,30.25,North,351,0.0,0.0,90,0.00,CLR,,0.00,WeatherDisplay:10.37,2013-02-04 07:18:00,
2013-02-04 01:23:00,27.0,24.5,30.25,North,351,0.0,0.0,90,0.00,CLR,,0.00,WeatherDisplay:10.37,2013-02-04 07:23:00,
2013-02-04 01:28:00,27.2,24.9,30.24,North,351,0.0,0.0,91,0.00,CLR,,0.00,WeatherDisplay:10.37,2013-02-04 07:28:00,
2013-02-04 01:33:00,27.3,25.0,30.24,North,351,0.0,0.0,91,0.00,CLR,,0.00,WeatherDisplay:10.37,2013-02-04 07:33:00,
2013-02-04 01:38:00,27.2,24.7,30.24,North,351,0.0,0.0,90,0.00,CLR,,0.00,WeatherDisplay:10.37,2013-02-04 07:38:00,
2013-02-04 01:43:00,27.2,24.7,30.23,North,351,0.0,0.0,90,0.00,CLR,,0.00,WeatherDisplay:10.37,2013-02-04 07:43:00,
2013-02-04 01:48:00,27.0,24.5,30.23,North,351,0.0,0.0,90,0.00,CLR,,0.00,WeatherDisplay:10.37,2013-02-04 07:48:00,
2013-02-04 01:53:00,26.9,24.4,30.23,North,351,0.0,0.0,90,0.00,CLR,,0.00,WeatherDisplay:10.37,2013-02-04 07:53:00,
2013-02-04 01:58:00,26.7,24.2,30.23,North,351,0.0,0.0,90,0.00,CLR,,0.00,WeatherDisplay:10.37,2013-02-04 07:58:00,
2013-02-04 02:03:00,26.6,24.1,30.23,North,351,0.0,0.0,90,0.00,CLR,,0.00,WeatherDisplay:10.37,2013-02-04 08:03:00,
2013-02-04 02:08:00,26.6,24.1,30.23,North,351,0.0,0.0,90,0.00,CLR,,0.00,WeatherDisplay:10.37,2013-02-04 08:08:00,
2013-02-04 02:13:00,26.7,24.4,30.23,North,351,0.0,0.0,91,0.00,CLR,,0.00,WeatherDisplay:10.37,2013-02-04 08:13:00,
2013-02-04 02:18:00,26.6,24.1,30.23,North,351,0.0,0.0,90,0.00,CLR,,0.00,WeatherDisplay:10.37,2013-02-04 08:18:00,
2013-02-04 02:23:00,26.6,24.1,30.22,North,350,0.0,0.0,90,0.00,CLR,,0.00,WeatherDisplay:10.37,2013-02-04 08:23:00,
2013-02-04 02:28:00,26.6,24.1,30.22,North,351,0.0,0.0,90,0.00,CLR,,0.00,WeatherDisplay:10.37,2013-02-04 08:28:00,
2013-02-04 02:33:00,26.6,24.3,30.23,North,351,0.0,0.0,91,0.00,CLR,,0.00,WeatherDisplay:10.37,2013-02-04 08:33:00,
2013-02-04 02:38:00,26.6,24.3,30.23,North,351,0.0,0.0,91,0.00,CLR,,0.00,WeatherDisplay:10.37,2013-02-04 08:38:00,
2013-02-04 02:43:00,26.6,24.3,30.23,North,351,0.0,0.0,91,0.00,CLR,,0.00,WeatherDisplay:10.37,2013-02-04 08:43:00,
2013-02-04 02:48:00,26.4,24.1,30.23,North,351,0.0,0.0,91,0.00,CLR,,0.00,WeatherDisplay:10.37,2013-02-04 08:48:00,
2013-02-04 02:53:00,26.4,23.9,30.22,North,351,0.0,0.0,90,0.00,CLR,,0.00,WeatherDisplay:10.37,2013-02-04 08:53:00,
2013-02-04 02:58:00,26.3,24.0,30.23,North,351,0.0,0.0,91,0.00,CLR,,0.00,WeatherDisplay:10.37,2013-02-04 08:58:00,
2013-02-04 03:03:00,26.3,24.0,30.22,North,351,0.0,0.0,91,0.00,CLR,,0.00,WeatherDisplay:10.37,2013-02-04 09:03:00,
2013-02-04 03:08:00,26.3,24.0,30.23,North,351,0.0,0.0,91,0.00,CLR,,0.00,WeatherDisplay:10.37,2013-02-04 09:08:00,
2013-02-04 03:13:00,26.1,23.8,30.22,North,351,0.0,0.0,91,0.00,CLR,,0.00,WeatherDisplay:10.37,2013-02-04 09:13:00,
2013-02-04 03:18:00,26.1,23.8,30.22,North,351,0.0,0.0,91,0.00,CLR,,0.00,WeatherDisplay:10.37,2013-02-04 09:18:00,
2013-02-04 03:23:00,26.3,24.0,30.23,North,351,0.0,0.0,91,0.00,CLR,,0.00,WeatherDisplay:10.37,2013-02-04 09:23:00,
2013-02-04 03:28:00,26.3,24.0,30.23,North,351,0.0,0.0,91,0.00,CLR,,0.00,WeatherDisplay:10.37,2013-02-04 09:28:00,
2013-02-04 03:33:00,26.3,24.0,30.23,North,351,0.0,0.0,91,0.00,CLR,,0.00,WeatherDisplay:10.37,2013-02-04 09:33:00,
2013-02-04 03:38:00,26.3,24.0,30.23,North,351,0.0,0.0,91,0.00,CLR,,0.00,WeatherDisplay:10.37,2013-02-04 09:38:00,
2013-02-04 03:43:00,26.3,24.0,30.23,North,351,0.0,0.0,91,0.00,CLR,,0.00,WeatherDisplay:10.37,2013-02-04 09:43:00,
2013-02-04 03:48:00,26.3,24.0,30.23,North,351,0.0,0.0,91,0.00,CLR,,0.00,WeatherDisplay:10.37,2013-02-04 09:48:00,
2013-02-04 03:53:00,26.3,24.0,30.23,North,351,0.0,0.0,91,0.00,CLR,,0.00,WeatherDisplay:10.37,2013-02-04 09:53:00,
2013-02-04 03:58:00,26.3,24.0,30.22,North,351,0.0,0.0,91,0.00,CLR,,0.00,WeatherDisplay:10.37,2013-02-04 09:58:00,
2013-02-04 04:03:00,26.1,23.8,30.22,North,351,0.0,0.0,91,0.00,CLR,,0.00,WeatherDisplay:10.37,2013-02-04 10:03:00,
2013-02-04 04:08:00,26.3,24.3,30.22,North,351,0.0,0.0,92,0.00,CLR,,0.00,WeatherDisplay:10.37,2013-02-04 10:08:00,
2013-02-04 04:13:00,26.1,24.1,30.22,North,351,0.0,0.0,92,0.00,CLR,,0.00,WeatherDisplay:10.37,2013-02-04 10:13:00,
2013-02-04 04:18:00,26.1,24.1,30.23,North,351,0.0,0.0,92,0.00,CLR,,0.00,WeatherDisplay:10.37,2013-02-04 10:18:00,
2013-02-04 04:23:00,26.1,24.1,30.23,North,351,0.0,0.0,92,0.00,CLR,,0.00,WeatherDisplay:10.37,2013-02-04 10:23:00,
2013-02-04 04:28:00,26.0,24.0,30.22,North,351,0.0,0.0,92,0.00,CLR,,0.00,WeatherDisplay:10.37,2013-02-04 10:28:00,
2013-02-04 04:33:00,26.0,23.7,30.22,North,351,0.0,0.0,91,0.00,CLR,,0.00,WeatherDisplay:10.37,2013-02-04 10:33:00,
2013-02-04 04:38:00,25.8,23.8,30.22,North,351,0.0,0.0,92,0.00,CLR,,0.00,WeatherDisplay:10.37,2013-02-04 10:38:00,
2013-02-04 04:44:00,25.8,23.8,30.22,North,351,0.0,0.0,92,0.00,CLR,,0.00,WeatherDisplay:10.37,2013-02-04 10:44:00,
2013-02-04 04:49:00,26.0,24.0,30.22,North,351,0.0,0.0,92,0.00,CLR,,0.00,WeatherDisplay:10.37,2013-02-04 10:49:00,
2013-02-04 04:54:00,26.0,24.0,30.23,North,351,0.0,0.0,92,0.00,CLR,,0.00,WeatherDisplay:10.37,2013-02-04 10:54:00,
2013-02-04 04:59:00,26.0,24.0,30.24,North,351,0.0,0.0,92,0.00,CLR,,0.00,WeatherDisplay:10.37,2013-02-04 10:59:00,
2013-02-04 05:04:00,26.1,24.1,30.24,North,351,0.0,0.0,92,0.00,CLR,,0.00,WeatherDisplay:10.37,2013-02-04 11:04:00,
2013-02-04 05:09:00,26.1,24.1,30.24,North,351,0.0,0.0,92,0.00,CLR,,0.00,WeatherDisplay:10.37,2013-02-04 11:09:00,
2013-02-04 05:14:00,26.1,24.1,30.24,North,351,0.0,0.0,92,0.00,CLR,,0.00,WeatherDisplay:10.37,2013-02-04 11:14:00,
2013-02-04 05:19:00,26.1,24.1,30.24,North,351,0.0,0.0,92,0.00,CLR,,0.00,WeatherDisplay:10.37,2013-02-04 11:19:00,
2013-02-04 05:24:00,26.4,24.4,30.25,North,350,0.0,0.0,92,0.00,CLR,,0.00,WeatherDisplay:10.37,2013-02-04 11:24:00,
2013-02-04 05:29:00,26.7,24.7,30.25,North,351,0.0,0.0,92,0.00,CLR,,0.00,WeatherDisplay:10.37,2013-02-04 11:29:00,
2013-02-04 05:34:00,26.9,24.9,30.25,North,351,0.0,0.0,92,0.00,CLR,,0.00,WeatherDisplay:10.37,2013-02-04 11:34:00,
2013-02-04 05:39:00,26.9,24.9,30.25,North,351,0.0,0.0,92,0.00,CLR,,0.00,WeatherDisplay:10.37,2013-02-04 11:39:00,
2013-02-04 05:44:00,26.9,24.9,30.25,North,351,0.0,0.0,92,0.00,CLR,,0.00,WeatherDisplay:10.37,2013-02-04 11:44:00,
2013-02-04 05:49:00,26.9,24.9,30.24,North,351,0.0,0.0,92,0.00,CLR,,0.00,WeatherDisplay:10.37,2013-02-04 11:49:00,
2013-02-04 05:54:00,26.9,24.9,30.24,North,351,0.0,0.0,92,0.00,CLR,,0.00,WeatherDisplay:10.37,2013-02-04 11:54:00,
2013-02-04 05:59:00,27.0,25.0,30.24,North,351,0.0,0.0,92,0.00,CLR,,0.00,WeatherDisplay:10.37,2013-02-04 11:59:00,
2013-02-04 06:04:00,27.0,25.0,30.24,North,350,0.0,0.0,92,0.00,CLR,,0.00,WeatherDisplay:10.37,2013-02-04 12:04:00,
2013-02-04 06:09:00,26.9,24.9,30.24,North,351,0.0,0.0,92,0.00,CLR,,0.00,WeatherDisplay:10.37,2013-02-04 12:09:00,
2013-02-04 06:14:00,26.9,24.9,30.25,North,351,0.0,0.0,92,0.00,CLR,,0.00,WeatherDisplay:10.37,2013-02-04 12:14:00,
2013-02-04 06:19:00,27.0,25.0,30.25,North,351,0.0,0.0,92,0.00,CLR,,0.00,WeatherDisplay:10.37,2013-02-04 12:19:00,
2013-02-04 06:24:00,27.0,25.0,30.25,North,351,0.0,0.0,92,0.00,CLR,,0.00,WeatherDisplay:10.37,2013-02-04 12:24:00,
2013-02-04 06:29:00,27.2,25.2,30.25,North,351,0.0,0.0,92,0.00,CLR,,0.00,WeatherDisplay:10.37,2013-02-04 12:29:00,
2013-02-04 06:34:00,27.2,25.2,30.26,North,351,0.0,0.0,92,0.00,CLR,,0.00,WeatherDisplay:10.37,2013-02-04 12:34:00,
2013-02-04 06:39:00,27.3,25.3,30.26,North,350,0.0,0.0,92,0.00,CLR,,0.00,WeatherDisplay:10.37,2013-02-04 12:39:00,
2013-02-04 06:44:00,27.3,25.3,30.26,North,351,0.0,0.0,92,0.00,CLR,,0.00,WeatherDisplay:10.37,2013-02-04 12:44:00,
2013-02-04 06:49:00,27.5,25.5,30.26,North,351,0.0,0.0,92,0.00,CLR,,0.00,WeatherDisplay:10.37,2013-02-04 12:49:00,
2013-02-04 06:54:00,27.5,25.5,30.26,North,350,0.0,0.0,92,0.00,CLR,,0.00,WeatherDisplay:10.37,2013-02-04 12:54:00,
2013-02-04 06:59:00,27.6,25.6,30.26,North,351,0.0,0.0,92,0.00,CLR,,0.00,WeatherDisplay:10.37,2013-02-04 12:59:00,
2013-02-04 07:04:00,27.8,25.8,30.27,North,351,0.0,0.0,92,0.00,CLR,,0.00,WeatherDisplay:10.37,2013-02-04 13:04:00,
2013-02-04 07:09:00,27.8,25.8,30.27,North,351,0.0,0.0,92,0.00,CLR,,0.00,WeatherDisplay:10.37,2013-02-04 13:09:00,
2013-02-04 07:14:00,27.9,25.9,30.28,North,351,0.0,0.0,92,0.00,CLR,,0.00,WeatherDisplay:10.37,2013-02-04 13:14:00,
2013-02-04 07:19:00,28.1,26.1,30.28,North,351,0.0,0.0,92,0.00,CLR,,0.00,WeatherDisplay:10.37,2013-02-04 13:19:00,
2013-02-04 07:24:00,28.2,26.2,30.28,North,351,0.0,0.0,92,0.00,CLR,,0.00,WeatherDisplay:10.37,2013-02-04 13:24:00,
2013-02-04 07:29:00,28.4,26.4,30.28,North,351,0.0,0.0,92,0.00,CLR,,0.00,WeatherDisplay:10.37,2013-02-04 13:29:00,
2013-02-04 07:34:00,28.7,26.7,30.27,North,351,1.1,1.1,92,0.00,CLR,,0.00,WeatherDisplay:10.37,2013-02-04 13:34:00,
2013-02-04 07:39:00,28.8,26.8,30.27,North,350,1.1,1.1,92,0.00,CLR,,0.00,WeatherDisplay:10.37,2013-02-04 13:39:00,
2013-02-04 07:44:00,29.0,27.0,30.27,North,351,1.1,1.1,92,0.00,CLR,,0.00,WeatherDisplay:10.37,2013-02-04 13:44:00,
2013-02-04 07:49:00,29.3,27.0,30.27,North,351,0.0,0.0,91,0.00,CLR,,0.00,WeatherDisplay:10.37,2013-02-04 13:49:00,
2013-02-04 07:54:00,29.4,27.1,30.27,North,351,0.0,0.0,91,0.00,CLR,,0.00,WeatherDisplay:10.37,2013-02-04 13:54:00,
2013-02-04 07:59:00,29.7,27.4,30.27,North,350,0.0,0.0,91,0.00,CLR,,0.00,WeatherDisplay:10.37,2013-02-04 13:59:00,
2013-02-04 08:04:00,30.0,27.7,30.28,North,350,0.0,0.0,91,0.00,CLR,,0.00,WeatherDisplay:10.37,2013-02-04 14:04:00,
2013-02-04 08:09:00,30.3,27.7,30.28,North,351,0.0,0.0,90,0.00,CLR,,0.00,WeatherDisplay:10.37,2013-02-04 14:09:00,
2013-02-04 08:14:00,30.6,28.0,30.27,North,350,0.0,0.0,90,0.00,CLR,,0.00,WeatherDisplay:10.37,2013-02-04 14:14:00,
2013-02-04 08:19:00,31.0,28.4,30.27,North,351,0.0,0.0,90,0.00,CLR,,0.00,WeatherDisplay:10.37,2013-02-04 14:19:00,
2013-02-04 08:24:00,31.5,28.6,30.27,North,351,1.1,1.1,89,0.00,CLR,,0.00,WeatherDisplay:10.37,2013-02-04 14:24:00,
2013-02-04 08:29:00,31.9,29.0,30.27,NNE,13,3.5,3.5,89,0.00,CLR,,0.00,WeatherDisplay:10.37,2013-02-04 14:29:00,
2013-02-04 08:34:00,32.1,28.7,30.27,NNE,13,1.1,0.0,87,0.00,CLR,,0.00,WeatherDisplay:10.37,2013-02-04 14:34:00,
2013-02-04 08:39:00,32.5,29.1,30.26,NNE,14,3.5,3.5,87,0.00,CLR,,0.00,WeatherDisplay:10.37,2013-02-04 14:39:00,
2013-02-04 08:44:00,33.1,29.4,30.26,NNE,28,3.5,3.5,86,0.00,CLR,,0.00,WeatherDisplay:10.37,2013-02-04 14:44:00,
2013-02-04 08:49:00,33.5,29.5,30.26,NNE,28,1.1,1.1,85,0.00,CLR,,0.00,WeatherDisplay:10.37,2013-02-04 14:49:00,
2013-02-04 08:54:00,33.8,29.8,30.26,NNE,28,1.1,1.1,85,0.00,CLR,,0.00,WeatherDisplay:10.37,2013-02-04 14:54:00,
2013-02-04 08:59:00,34.1,29.5,30.26,NNE,28,0.0,0.0,83,0.00,CLR,,0.00,WeatherDisplay:10.37,2013-02-04 14:59:00,
2013-02-04 09:04:00,34.4,29.2,30.26,NNE,28,1.0,0.0,81,0.00,CLR,,0.00,WeatherDisplay:10.37,2013-02-04 15:04:00,
2013-02-04 09:09:00,34.7,29.8,30.26,NNE,28,0.0,0.0,82,0.00,CLR,,0.00,WeatherDisplay:10.37,2013-02-04 15:09:00,
2013-02-04 09:14:00,35.2,30.0,30.26,NNE,28,1.1,1.1,81,0.00,CLR,,0.00,WeatherDisplay:10.37,2013-02-04 15:14:00,
2013-02-04 09:19:00,35.6,29.7,30.26,NNE,28,0.0,0.0,79,0.00,CLR,,0.00,WeatherDisplay:10.37,2013-02-04 15:19:00,
2013-02-04 09:24:00,35.8,29.0,30.26,NNE,27,0.0,0.0,76,0.00,CLR,,0.00,WeatherDisplay:10.37,2013-02-04 15:24:00,
2013-02-04 09:29:00,35.8,28.3,30.26,NNE,27,0.0,0.0,74,0.00,CLR,,0.00,WeatherDisplay:10.37,2013-02-04 15:29:00,
2013-02-04 09:34:00,35.9,28.1,30.26,NNE,27,0.0,0.0,73,0.00,CLR,,0.00,WeatherDisplay:10.37,2013-02-04 15:34:00,
2013-02-04 09:39:00,36.2,28.7,30.26,NNE,27,0.0,0.0,74,0.00,CLR,,0.00,WeatherDisplay:10.37,2013-02-04 15:39:00,
2013-02-04 09:44:00,36.5,28.3,30.26,NNE,27,0.0,0.0,72,0.00,CLR,,0.00,WeatherDisplay:10.37,2013-02-04 15:44:00,
2013-02-04 09:49:00,36.6,28.1,30.26,NNE,27,0.0,0.0,71,0.00,CLR,,0.00,WeatherDisplay:10.37,2013-02-04 15:49:00,
2013-02-04 09:54:00,36.9,28.4,30.26,NNE,33,2.3,2.3,71,0.00,CLR,,0.00,WeatherDisplay:10.37,2013-02-04 15:54:00,
2013-02-04 09:59:00,37.2,28.3,30.25,NNE,33,0.0,0.0,70,0.00,CLR,,0.00,WeatherDisplay:10.37,2013-02-04 15:59:00,
2013-02-04 10:04:00,37.6,29.4,30.25,NNE,33,1.1,0.0,72,0.00,CLR,,0.00,WeatherDisplay:10.37,2013-02-04 16:04:00,
2013-02-04 10:09:00,37.9,28.6,30.24,NNE,33,1.1,0.0,69,0.00,CLR,,0.00,WeatherDisplay:10.37,2013-02-04 16:09:00,
2013-02-04 10:14:00,38.2,28.6,30.24,NNE,33,0.0,0.0,68,0.00,CLR,,0.00,WeatherDisplay:10.37,2013-02-04 16:14:00,
2013-02-04 10:19:00,38.9,29.6,30.24,NNE,33,0.0,0.1,69,0.00,CLR,,0.00,WeatherDisplay:10.37,2013-02-04 16:19:00,
2013-02-04 10:24:00,39.1,28.7,30.23,NNE,33,1.1,0.0,66,0.00,CLR,,0.00,WeatherDisplay:10.37,2013-02-04 16:24:00,
2013-02-04 10:29:00,39.3,28.9,30.24,NNE,33,1.1,1.1,66,0.00,CLR,,0.00,WeatherDisplay:10.37,2013-02-04 16:29:00,
2013-02-04 10:34:00,39.8,29.4,30.24,NNE,33,3.5,3.5,66,0.00,CLR,,0.00,WeatherDisplay:10.37,2013-02-04 16:34:00,
2013-02-04 10:39:00,39.9,28.3,30.23,NNE,33,0.0,0.0,63,0.00,CLR,,0.00,WeatherDisplay:10.37,2013-02-04 16:39:00,
2013-02-04 10:44:00,40.2,29.0,30.23,NNE,33,1.0,0.0,64,0.00,CLR,,0.00,WeatherDisplay:10.37,2013-02-04 16:44:00,
2013-02-04 10:49:00,40.5,28.5,30.23,NNE,33,0.0,0.0,62,0.00,CLR,,0.00,WeatherDisplay:10.37,2013-02-04 16:49:00,
2013-02-04 10:54:00,40.5,28.5,30.23,NW,322,0.0,0.0,62,0.00,CLR,,0.00,WeatherDisplay:10.37,2013-02-04 16:54:00,
2013-02-04 10:59:00,40.6,28.2,30.23,NW,322,0.0,0.0,61,0.00,CLR,,0.00,WeatherDisplay:10.37,2013-02-04 16:59:00,
2013-02-04 11:04:00,40.8,28.8,30.23,NNW,340,0.0,0.1,62,0.00,CLR,,0.00,WeatherDisplay:10.37,2013-02-04 17:04:00,
2013-02-04 11:09:00,41.3,28.4,30.24,NNW,340,0.0,0.0,60,0.00,CLR,,0.00,WeatherDisplay:10.37,2013-02-04 17:09:00,
2013-02-04 11:14:00,41.8,28.5,30.24,SE,128,3.5,3.5,59,0.00,CLR,,0.00,WeatherDisplay:10.37,2013-02-04 17:14:00,
2013-02-04 11:19:00,42.1,29.6,30.23,South,172,1.1,0.0,61,0.00,CLR,,0.00,WeatherDisplay:10.37,2013-02-04 17:19:00,
2013-02-04 11:24:00,42.2,30.1,30.23,SE,126,1.1,0.0,62,0.00,CLR,,0.00,WeatherDisplay:10.37,2013-02-04 17:24:00,
2013-02-04 11:29:00,42.6,29.3,30.23,SSE,167,0.0,0.0,59,0.00,CLR,,0.00,WeatherDisplay:10.37,2013-02-04 17:29:00,
2013-02-04 11:34:00,43.2,29.8,30.22,SW,232,2.3,2.3,59,0.00,CLR,,0.00,WeatherDisplay:10.37,2013-02-04 17:34:00,
2013-02-04 11:39:00,43.5,30.1,30.22,SSW,196,1.1,1.1,59,0.00,CLR,,0.00,WeatherDisplay:10.37,2013-02-04 17:39:00,
2013-02-04 11:44:00,43.8,30.0,30.21,SSE,148,1.1,0.0,58,0.00,CLR,,0.00,WeatherDisplay:10.37,2013-02-04 17:44:00,
2013-02-04 11:49:00,43.9,29.6,30.20,SSE,152,1.1,1.1,57,0.00,CLR,,0.00,WeatherDisplay:10.37,2013-02-04 17:49:00,
2013-02-04 11:54:00,44.1,30.3,30.20,South,182,1.1,1.1,58,0.00,CLR,,0.00,WeatherDisplay:10.37,2013-02-04 17:54:00,
2013-02-04 11:59:00,44.5,30.2,30.20,South,169,1.1,1.1,57,0.00,CLR,,0.00,WeatherDisplay:10.37,2013-02-04 17:59:00,
2013-02-04 12:04:00,44.3,29.6,30.20,SSE,153,2.3,2.3,56,0.00,CLR,,0.00,WeatherDisplay:10.37,2013-02-04 18:04:00,
2013-02-04 12:09:00,44.5,30.2,30.19,SSE,153,1.1,0.0,57,0.00,CLR,,0.00,WeatherDisplay:10.37,2013-02-04 18:09:00,
2013-02-04 12:14:00,44.8,30.0,30.19,SW,219,3.5,3.5,56,0.00,CLR,,0.00,WeatherDisplay:10.37,2013-02-04 18:14:00,
2013-02-04 12:19:00,44.9,30.1,30.19,South,181,0.0,0.0,56,0.00,CLR,,0.00,WeatherDisplay:10.37,2013-02-04 18:19:00,
2013-02-04 12:24:00,45.4,29.3,30.19,WSW,244,1.1,1.1,53,0.00,CLR,,0.00,WeatherDisplay:10.37,2013-02-04 18:24:00,
2013-02-04 12:29:00,45.8,30.5,30.19,SW,227,1.1,1.1,55,0.00,CLR,,0.00,WeatherDisplay:10.37,2013-02-04 18:29:00,
2013-02-04 12:34:00,46.1,29.9,30.18,SW,225,1.1,1.1,53,0.00,CLR,,0.00,WeatherDisplay:10.37,2013-02-04 18:34:00,
2013-02-04 12:39:00,46.1,29.9,30.17,SW,219,1.1,0.0,53,0.00,CLR,,0.00,WeatherDisplay:10.37,2013-02-04 18:39:00,
2013-02-04 12:44:00,46.2,30.0,30.16,SW,219,1.1,0.0,53,0.00,CLR,,0.00,WeatherDisplay:10.37,2013-02-04 18:44:00,
2013-02-04 12:49:00,46.0,28.9,30.16,South,174,1.1,0.0,51,0.00,CLR,,0.00,WeatherDisplay:10.37,2013-02-04 18:49:00,
2013-02-04 12:54:00,46.1,29.9,30.16,South,186,0.0,0.0,53,0.00,CLR,,0.00,WeatherDisplay:10.37,2013-02-04 18:54:00,
2013-02-04 12:59:00,46.2,28.6,30.15,SSW,200,1.0,0.0,50,0.00,CLR,,0.00,WeatherDisplay:10.37,2013-02-04 18:59:00,
2013-02-04 13:04:00,46.5,29.3,30.15,SSE,167,1.1,0.0,51,0.00,CLR,,0.00,WeatherDisplay:10.37,2013-02-04 19:04:00,
2013-02-04 18:44:00,43.8,33.9,30.12,SSW,202,0.0,0.0,68,0.00,CLR,,0.00,WeatherDisplay:10.37,2013-02-05 00:44:00,
2013-02-04 18:49:00,44.3,33.7,30.12,SSW,202,2.3,2.3,66,0.00,CLR,,0.00,WeatherDisplay:10.37,2013-02-05 00:49:00,
2013-02-04 18:54:00,45.1,33.6,30.12,South,179,5.0,5.0,64,0.00,CLR,,0.00,WeatherDisplay:10.37,2013-02-05 00:54:00,
2013-02-04 18:59:00,45.5,34.0,30.12,WSW,241,1.1,0.0,64,0.00,CLR,,0.00,WeatherDisplay:10.37,2013-02-05 00:59:00,
2013-02-04 19:04:00,45.7,34.2,30.11,WSW,241,0.0,0.0,64,0.00,CLR,,0.00,WeatherDisplay:10.37,2013-02-05 01:04:00,
2013-02-04 19:09:00,45.8,33.9,30.11,South,175,2.3,0.0,63,0.00,CLR,,0.00,WeatherDisplay:10.37,2013-02-05 01:09:00,
2013-02-04 19:14:00,46.0,34.1,30.11,South,175,0.0,0.0,63,0.00,CLR,,0.00,WeatherDisplay:10.37,2013-02-05 01:14:00,
2013-02-04 19:19:00,46.1,33.4,30.12,SSW,205,2.0,2.0,61,0.00,CLR,,0.00,WeatherDisplay:10.37,2013-02-05 01:19:00,
2013-02-04 19:24:00,46.2,33.9,30.12,SSE,162,0.0,0.0,62,0.00,CLR,,0.00,WeatherDisplay:10.37,2013-02-05 01:24:00,
2013-02-04 19:29:00,46.2,33.5,30.11,South,169,1.1,0.0,61,0.00,CLR,,0.00,WeatherDisplay:10.37,2013-02-05 01:29:00,
2013-02-04 19:34:00,46.2,33.9,30.11,South,169,0.0,0.0,62,0.00,CLR,,0.00,WeatherDisplay:10.37,2013-02-05 01:34:00,
2013-02-04 19:39:00,46.1,33.4,30.11,SSE,166,1.1,0.0,61,0.00,CLR,,0.00,WeatherDisplay:10.37,2013-02-05 01:39:00,
2013-02-04 19:44:00,46.1,33.8,30.11,SSE,166,0.0,0.0,62,0.00,CLR,,0.00,WeatherDisplay:10.37,2013-02-05 01:44:00,
2013-02-04 19:49:00,46.0,33.3,30.11,SSE,166,0.0,0.0,61,0.00,CLR,,0.00,WeatherDisplay:10.37,2013-02-05 01:49:00,
2013-02-04 19:54:00,46.0,33.7,30.11,SSE,166,0.0,0.0,62,0.00,CLR,,0.00,WeatherDisplay:10.37,2013-02-05 01:54:00,
2013-02-04 19:59:00,45.8,33.9,30.11,SSE,166,0.0,0.0,63,0.00,CLR,,0.00,WeatherDisplay:10.37,2013-02-05 01:59:00,
2013-02-04 20:04:00,45.7,33.0,30.11,SSE,166,0.0,0.0,61,0.00,CLR,,0.00,WeatherDisplay:10.37,2013-02-05 02:04:00,
2013-02-04 20:09:00,45.7,33.0,30.11,SSE,166,0.0,0.0,61,0.00,CLR,,0.00,WeatherDisplay:10.37,2013-02-05 02:09:00,
2013-02-04 20:14:00,45.7,33.0,30.11,SSE,166,0.0,0.0,61,0.00,CLR,,0.00,WeatherDisplay:10.37,2013-02-05 02:14:00,
2013-02-04 20:19:00,45.7,33.4,30.11,SSE,166,0.0,0.0,62,0.00,CLR,,0.00,WeatherDisplay:10.37,2013-02-05 02:19:00,
2013-02-04 20:24:00,45.5,33.2,30.11,SSE,166,0.0,0.0,62,0.00,CLR,,0.00,WeatherDisplay:10.37,2013-02-05 02:24:00,
2013-02-04 20:29:00,45.4,33.5,30.11,SSE,166,0.0,0.0,63,0.00,CLR,,0.00,WeatherDisplay:10.37,2013-02-05 02:29:00,
2013-02-04 20:34:00,45.4,32.3,30.11,SSE,166,1.1,0.0,60,0.00,CLR,,0.00,WeatherDisplay:10.37,2013-02-05 02:34:00,
2013-02-04 20:39:00,45.5,31.1,30.11,SSE,157,3.0,3.0,57,0.00,CLR,,0.00,WeatherDisplay:10.37,2013-02-05 02:39:00,
2013-02-04 20:44:00,45.8,31.0,30.11,SSE,157,0.0,0.0,56,0.00,CLR,,0.00,WeatherDisplay:10.37,2013-02-05 02:44:00,
2013-02-04 20:49:00,46.0,31.6,30.11,SSE,157,0.0,0.0,57,0.00,CLR,,0.00,WeatherDisplay:10.37,2013-02-05 02:49:00,
2013-02-04 20:54:00,45.8,32.3,30.11,SSE,157,0.0,0.0,59,0.00,CLR,,0.00,WeatherDisplay:10.37,2013-02-05 02:54:00,
2013-02-04 20:59:00,45.5,32.4,30.11,SSE,157,0.0,0.0,60,0.00,CLR,,0.00,WeatherDisplay:10.37,2013-02-05 02:59:00,
2013-02-04 21:04:00,45.4,33.9,30.10,SSE,157,0.0,0.0,64,0.00,CLR,,0.00,WeatherDisplay:10.37,2013-02-05 03:04:00,
2013-02-04 21:09:00,45.1,32.8,30.10,SSE,157,0.0,0.0,62,0.00,CLR,,0.00,WeatherDisplay:10.37,2013-02-05 03:09:00,
2013-02-04 21:14:00,44.9,32.3,30.10,SSE,157,0.0,0.0,61,0.00,CLR,,0.00,WeatherDisplay:10.37,2013-02-05 03:14:00,
2013-02-04 21:19:00,44.9,32.7,30.10,SSE,157,0.0,0.0,62,0.00,CLR,,0.00,WeatherDisplay:10.37,2013-02-05 03:19:00,
2013-02-04 21:24:00,44.8,32.6,30.10,SSE,157,0.0,0.0,62,0.00,CLR,,0.00,WeatherDisplay:10.37,2013-02-05 03:24:00,
2013-02-04 21:29:00,44.6,33.6,30.10,SSE,157,0.0,0.0,65,0.00,CLR,,0.00,WeatherDisplay:10.37,2013-02-05 03:29:00,
2013-02-04 21:34:00,44.5,33.8,30.10,SSE,157,0.0,0.0,66,0.00,CLR,,0.00,WeatherDisplay:10.37,2013-02-05 03:34:00,
2013-02-04 21:39:00,44.2,33.9,30.10,SSE,157,0.0,0.1,67,0.00,CLR,,0.00,WeatherDisplay:10.37,2013-02-05 03:39:00,
2013-02-04 21:44:00,44.1,33.5,30.09,SSE,157,0.0,0.0,66,0.00,CLR,,0.00,WeatherDisplay:10.37,2013-02-05 03:44:00,
2013-02-04 21:49:00,43.9,33.6,30.09,SSE,157,0.0,0.0,67,0.00,CLR,,0.00,WeatherDisplay:10.37,2013-02-05 03:49:00,
2013-02-04 21:54:00,43.8,34.3,30.09,SSE,157,0.0,0.0,69,0.00,CLR,,0.00,WeatherDisplay:10.37,2013-02-05 03:54:00,
2013-02-04 22:00:00,43.5,34.0,30.10,SSE,157,0.0,0.0,69,0.00,CLR,,0.00,WeatherDisplay:10.37,2013-02-05 04:00:00,
2013-02-04 22:05:00,43.3,33.4,30.09,SSE,157,0.0,0.0,68,0.00,CLR,,0.00,WeatherDisplay:10.37,2013-02-05 04:05:00,
2013-02-04 22:10:00,43.2,33.3,30.09,SSE,157,0.0,0.0,68,0.00,CLR,,0.00,WeatherDisplay:10.37,2013-02-05 04:10:00,
2013-02-04 22:15:00,43.2,33.3,30.09,SSE,157,0.0,0.0,68,0.00,CLR,,0.00,WeatherDisplay:10.37,2013-02-05 04:15:00,
2013-02-04 22:20:00,43.1,33.6,30.09,SSE,157,0.0,0.0,69,0.00,CLR,,0.00,WeatherDisplay:10.37,2013-02-05 04:20:00,
2013-02-04 22:25:00,43.1,33.3,30.09,SSE,157,0.0,0.0,68,0.00,CLR,,0.00,WeatherDisplay:10.37,2013-02-05 04:25:00,
2013-02-04 22:30:00,43.1,33.6,30.09,SSE,157,0.0,0.0,69,0.00,CLR,,0.00,WeatherDisplay:10.37,2013-02-05 04:30:00,
2013-02-04 22:35:00,43.1,34.0,30.09,SSE,157,0.0,0.0,70,0.00,CLR,,0.00,WeatherDisplay:10.37,2013-02-05 04:35:00,
2013-02-04 22:40:00,43.1,33.3,30.09,SSE,157,0.0,0.0,68,0.00,CLR,,0.00,WeatherDisplay:10.37,2013-02-05 04:40:00,
2013-02-04 22:45:00,43.2,33.7,30.09,SSE,157,0.0,0.0,69,0.00,CLR,,0.00,WeatherDisplay:10.37,2013-02-05 04:45:00,
2013-02-04 22:50:00,43.2,33.7,30.09,SSE,157,0.0,0.0,69,0.00,CLR,,0.00,WeatherDisplay:10.37,2013-02-05 04:50:00,
2013-02-04 22:55:00,43.2,34.1,30.09,SSE,157,0.0,0.0,70,0.00,CLR,,0.00,WeatherDisplay:10.37,2013-02-05 04:55:00,
2013-02-04 23:00:00,43.2,33.3,30.09,SSE,157,0.0,0.0,68,0.00,CLR,,0.00,WeatherDisplay:10.37,2013-02-05 05:00:00,
2013-02-04 23:02:00,43.2,33.7,30.09,SSE,157,0.0,0.0,69,0.00,CLR,,0.00,WeatherDisplay:10.37,2013-02-05 05:02:00,
2013-02-04 23:07:00,43.2,34.4,30.08,SSE,157,0.0,0.0,71,0.00,CLR,,0.00,WeatherDisplay:10.37,2013-02-05 05:07:00,
2013-02-04 23:12:00,43.2,34.4,30.08,SSE,157,0.0,0.0,71,0.00,CLR,,0.00,WeatherDisplay:10.37,2013-02-05 05:12:00,
2013-02-04 23:17:00,43.1,34.3,30.08,SSE,157,0.0,0.0,71,0.00,CLR,,0.00,WeatherDisplay:10.37,2013-02-05 05:17:00,
2013-02-04 23:22:00,42.9,33.8,30.08,SSE,157,0.0,0.0,70,0.00,CLR,,0.00,WeatherDisplay:10.37,2013-02-05 05:22:00,
2013-02-04 23:27:00,42.6,33.9,30.08,SSE,157,0.0,0.0,71,0.00,CLR,,0.00,WeatherDisplay:10.37,2013-02-05 05:27:00,
2013-02-04 23:32:00,42.5,34.1,30.08,SSE,157,0.0,0.0,72,0.00,CLR,,0.00,WeatherDisplay:10.37,2013-02-05 05:32:00,
2013-02-04 23:37:00,42.5,34.1,30.08,SSE,157,0.0,0.0,72,0.00,CLR,,0.00,WeatherDisplay:10.37,2013-02-05 05:37:00,
2013-02-04 23:42:00,42.3,34.3,30.08,SSE,157,0.0,0.0,73,0.00,CLR,,0.00,WeatherDisplay:10.37,2013-02-05 05:42:00,
2013-02-04 23:47:00,42.3,34.6,30.08,SSE,157,0.0,0.0,74,0.00,CLR,,0.00,WeatherDisplay:10.37,2013-02-05 05:47:00,
2013-02-04 23:52:00,42.2,34.8,30.08,SSE,157,0.0,0.0,75,0.00,CLR,,0.00,WeatherDisplay:10.37,2013-02-05 05:52:00,
2013-02-04 23:57:00,42.2,34.5,30.08,SSE,157,0.0,0.0,74,0.00,CLR,,0.00,WeatherDisplay:10.37,2013-02-05 05:57:00,